Content
SEND FEEDBACK

Daily
Averages
Monthly
Summary
United States of America

POTTS JUNCTION, GUAM


Home > North America > United States > Guam
Elevation: 360 feet     Latitude: 13 33N     Longitude: 144 50E

WEATHER
 
SELECT A DAY
Number of Records: 215,487;   Date Range: 1/1/95 - 12/16/14
 
SHARE

PRINT THIS DATA

[ ← Previous Day ]
WEATHER ALMANAC - MARCH 9, 2013
[ Next Day → ]
[ °C ]   °F
Weather ElementAverageHighLow
Temperature82.6 °F87.1 °F (10:54 am)78.1 °F (4:54 am)
Dewpoint70.9 °F72 °F (8:54 am)69.1 °F (10:54 am)
Humidity68 %79 % (4:54 am)55 % (10:54 am)
Barometer29.92 in29.98 in (9:54 am)29.88 in (3:54 pm)
Wind Speed11.6 mph17.3 mph (3:54 pm)
Wind Gust24.2 mph (11:54 am)
Weather ElementAverage
Visibility10 mi
Wind DirectionENE (62.2 °)

Weather ElementTotal
Precipitation---
Cooling Degree Days17.6 (Base 65)
Growing Degree Days32.6 (Base 50)
Averaged from 23 records on March 9, 2013
WEATHER CONDITIONS BREAKOUT
WIND DIRECTION BREAKOUT
WEATHER BY HOUR - MARCH 9, 2013
[ °C ]   °F
Local TimeTemperatureDewpointHumidityBarometerVisibilityWind DirectionWind SpeedGust SpeedPrecipitationEventsConditions
1:54 AM81.0 °F71.1 °F72 %29.91 in10.0 miENE (70°)9.2 mphClear
2:54 AM80.1 °F71.1 °F74 %29.89 in10.0 miENE (60°)6.9 mphPartly Cloudy
3:54 AM79.0 °F71.1 °F77 %29.89 in10.0 miENE (60°)5.8 mphClear
4:54 AM78.1 °F71.1 °F79 %29.90 in10.0 miENE (60°)5.8 mphClear
5:54 AM79.0 °F71.1 °F77 %29.91 in10.0 miENE (60°)4.6 mphClear
6:54 AM79.0 °F71.1 °F77 %29.94 in10.0 miENE (60°)4.6 mphPartly Cloudy
7:54 AM82.0 °F71.1 °F69 %29.95 in10.0 miNE (50°)9.2 mphClear
8:54 AM82.9 °F72.0 °F69 %29.97 in10.0 miENE (70°)13.8 mphMostly Cloudy
9:54 AM86.0 °F70.0 °F59 %29.98 in10.0 miENE (60°)13.8 mphMostly Cloudy
10:54 AM87.1 °F69.1 °F55 %29.96 in10.0 miENE (70°)16.1 mphPartly Cloudy
11:54 AM87.1 °F71.1 °F59 %29.94 in10.0 miEast (80°)15.0 mph24.2 mphMostly Cloudy
12:54 PM87.1 °F71.1 °F59 %29.92 in10.0 miENE (70°)16.1 mph23.0 mph0.00 inMostly Cloudy
1:54 PM86.0 °F71.1 °F61 %29.91 in10.0 miEast (90°)16.1 mphMostly Cloudy
2:54 PM87.1 °F69.1 °F55 %29.89 in10.0 miEast (90°)16.1 mphMostly Cloudy
3:54 PM86.0 °F70.0 °F59 %29.88 in10.0 miENE (70°)17.3 mph23.0 mphMostly Cloudy
4:54 PM84.9 °F71.1 °F63 %29.88 in10.0 miENE (60°)15.0 mphMostly Cloudy
5:54 PM82.9 °F71.1 °F67 %29.90 in10.0 miENE (60°)13.8 mph0.00 inScattered Clouds
6:54 PM82.0 °F69.1 °F65 %29.91 in10.0 miNE (50°)12.7 mphMostly Cloudy
7:54 PM81.0 °F70.0 °F69 %29.92 in10.0 miNE (50°)13.8 mphScattered Clouds
8:54 PM80.1 °F72.0 °F76 %29.93 in10.0 miNE (40°)10.4 mphScattered Clouds
9:54 PM81.0 °F71.1 °F72 %29.94 in10.0 miENE (60°)10.4 mphScattered Clouds
10:54 PM80.1 °F72.0 °F76 %29.94 in10.0 miNE (40°)10.4 mphPartly Cloudy
11:54 PM80.1 °F72.0 °F76 %29.94 in10.0 miNE (50°)9.2 mph0.00 inScattered Clouds
Hourly data recorded from PGUM, located miles away from Potts Junction, Guam







STORIES FROM OUR PARTNERS